Weather History for KEAU - January, 2013

Change the Weather History Date:

Friday, January 18, 2013

  Actual Average Record
Temperature  
Mean Temperature 27 °F 14 °F  
Max Temperature 42 °F 23 °F 45 °F (1996)
Min Temperature 11 °F 5 °F -36 °F (1967)
Degree Days  
Heating Degree Days 38 51  
Month to date heating degree days 831 913  
Since 1 July heating degree days 3858 4089  
Cooling Degree Days 0 0  
Month to date cooling degree days 0 0  
Year to date cooling degree days 0 0  
Moisture  
Dew Point 18 °F    
Average Humidity 72    
Maximum Humidity 85    
Minimum Humidity 59    
Precipitation  
Precipitation 0.04 in 0.03 in 0.70 in (1897)
Month to date precipitation 0.28 0.51  
Year to date precipitation 0.28 0.51  
Snow  
Snow 0.50 in 0.40 in 11.20 in (1996)
Month to date snowfall 0.6 7.4  
Since 1 July snowfall 22.4 23.2  
Snow Depth T in    
Sea Level Pressure  
Sea Level Pressure 29.98 in    
Wind  
Wind Speed 8 mph (South)    
Max Wind Speed 20 mph    
Max Gust Speed 23 mph    
Visibility 8 miles    
Events Snow    
T = Trace of Precipitation, MM = Missing Value Source: NWS Daily Summary

Daily Weather History Graph

Daily Weather History Graph

Search for Another Location

Airport or City:

Trip Planner

Search our weather history database for the weather conditions in past years. The results will help you decide how hot, cold, wet, or windy it might be!

Date:

Astronomy

Jan. 18, 2013 Rise Set
Actual Time 7:38 AM CST 4:55 PM CST
Civil Twilight 7:05 AM CST 5:27 PM CST
Nautical Twilight 6:29 AM CST 6:03 PM CST
Astronomical Twilight 5:54 AM CST 6:38 PM CST
Moon 10:55 AM CST (1/18) 12:06 AM CST (1/18)
Length of Visible Light 10h 21m
Length of Day
9h 17m
Waxing Crescent, 47% of the Moon is Illuminated
Jan 18
Waxing Crescent
Jan 18
First Quarter
Jan 26
Full
Feb 3
Last Quarter
Feb 10
New

Hourly Weather History & Observations

Time (CST) Temp. Windchill Dew Point Humidity Pressure Visibility Wind Dir Wind Speed Gust Speed Precip Events Conditions
1:56 AM 12.0 °F 4.1 °F 6.1 °F 77% 30.34 in 10.0 mi SSE 4.6 mph - N/A   Overcast
2:56 AM 12.9 °F 2.6 °F 7.0 °F 77% 30.31 in 1.8 mi SSE 6.9 mph - 0.00 in Snow Light Snow
3:07 AM 12.2 °F 0.7 °F 8.6 °F 85% 30.25 in 2.0 mi SE 8.1 mph - 0.00 in Snow Light Snow
3:22 AM 12.2 °F 1.7 °F 8.6 °F 85% 30.24 in 3.0 mi SE 6.9 mph - 0.01 in Snow Light Snow
3:36 AM 12.2 °F -0.2 °F 8.6 °F 85% 30.23 in 2.0 mi SE 9.2 mph - 0.01 in Snow Light Snow
3:44 AM 12.2 °F 2.9 °F 8.6 °F 85% 30.22 in 1.8 mi SE 5.8 mph - 0.01 in Snow Light Snow
3:56 AM 12.9 °F 2.6 °F 9.0 °F 84% 30.27 in 1.2 mi SE 6.9 mph - 0.01 in Snow Light Snow
4:56 AM 14.0 °F 2.9 °F 9.0 °F 80% 30.21 in 1.5 mi SE 8.1 mph - 0.01 in Snow Light Snow
5:37 AM 14.0 °F 2.9 °F 10.4 °F 86% 30.12 in 3.0 mi SE 8.1 mph - 0.01 in Snow Light Snow
5:47 AM 14.0 °F 2.0 °F 10.4 °F 86% 30.12 in 6.0 mi SE 9.2 mph - 0.01 in Snow Light Snow
5:56 AM 15.1 °F 3.3 °F 10.0 °F 80% 30.16 in 9.0 mi ESE 9.2 mph - 0.01 in   Overcast
6:56 AM 15.1 °F 3.3 °F 10.0 °F 80% 30.09 in 10.0 mi SE 9.2 mph - N/A   Overcast
7:56 AM 17.1 °F 5.0 °F 12.0 °F 81% 30.03 in 10.0 mi SSE 10.4 mph - N/A   Overcast
8:56 AM 19.0 °F 8.2 °F 12.9 °F 77% 30.00 in 10.0 mi SSE 9.2 mph - N/A   Partly Cloudy
9:56 AM 24.1 °F 13.7 °F 17.1 °F 75% 29.95 in 10.0 mi South 10.4 mph - N/A   Clear
10:56 AM 27.0 °F 19.5 °F 19.9 °F 75% 29.90 in 10.0 mi South 6.9 mph - N/A   Partly Cloudy
11:56 AM 35.1 °F 28.6 °F 25.0 °F 67% 29.84 in 10.0 mi SSW 8.1 mph - N/A   Clear
12:56 PM 39.0 °F 31.0 °F 27.0 °F 62% 29.78 in 10.0 mi SSW 13.8 mph - N/A   Clear
1:56 PM 41.0 °F 33.5 °F 28.0 °F 60% 29.76 in 10.0 mi SW 13.8 mph 18.4 mph N/A   Clear
2:56 PM 41.0 °F 34.3 °F 28.9 °F 62% 29.75 in 10.0 mi SW 11.5 mph - N/A   Clear
3:56 PM 41.0 °F 36.4 °F 28.9 °F 62% 29.74 in 10.0 mi SSW 6.9 mph - N/A   Clear
4:56 PM 39.9 °F 33.4 °F 28.9 °F 65% 29.75 in 10.0 mi SW 10.4 mph - N/A   Clear
5:56 PM 37.9 °F 32.7 °F 28.9 °F 70% 29.76 in 10.0 mi SW 6.9 mph - N/A   Clear
6:56 PM 36.0 °F 28.5 °F 28.9 °F 76% 29.76 in 10.0 mi WSW 10.4 mph - N/A   Clear
7:56 PM 34.0 °F 26.6 °F 27.0 °F 75% 29.78 in 10.0 mi WSW 9.2 mph - N/A   Clear
8:56 PM 32.0 °F 25.6 °F 26.1 °F 79% 29.80 in 10.0 mi West 6.9 mph - N/A   Clear
9:56 PM 28.9 °F 25.2 °F 25.0 °F 85% 29.80 in 10.0 mi South 3.5 mph - N/A   Clear
10:56 PM 30.0 °F 26.5 °F 25.0 °F 82% 29.80 in 10.0 mi SW 3.5 mph - N/A   Clear
11:56 PM 30.9 °F 27.5 °F 26.1 °F 82% 29.79 in 10.0 mi WSW 3.5 mph - N/A   Clear